Regional Weather Roundup
Issued by NWS

Home | Current Version | Previous Version | Graphics & Text | Print | Product List | Glossary On
Versions: 1 2 3 4 5 6 7 8 9 10 11 12 13 14 15 16 17 18 19 20 21 22 23 24 25 26 27 28 29 30 31 32 33 34 35 36 37 38 39 40 41 42 43 44 45 46 47 48 49 50
000
ASUS45 KABQ 172001
RWRNM
NEW MEXICO REGIONAL WEATHER ROUNDUP
NATIONAL WEATHER SERVICE ALBUQUERQUE NM
200 PM MDT TUE OCT 17 2017

NOTE: "FAIR" MEANS FEW OR NO CLOUDS BELOW 12,000 FEET AGL WITH NO
       SIGNIFICANT WEATHER OR OBSTRUCTIONS TO VISION.

      THIS PRODUCT IS RELEASED AS TWO VERSIONS.  ONE VERSION NEAR
      THE TOP OF THE HOUR CONTAINING PRELIMINARY DATA FROM ALBUQUERQUE
      AND OTHER STATIONS.  A FINAL VERSION WITH ADDITIONAL DATA IS
      ISSUED ABOUT 10 MINUTES AFTER THE HOUR.

NMZ501-503-504-510>518-172100-
NORTHWEST PLATEAU/NORTHCENTRAL MOUNTAINS

CITY           SKY/WX    TMP DP  RH WIND       PRES   REMARKS
FARMINGTON     FAIR      70  17  13 SW6       30.28F
LOS ALAMOS     FAIR      64  20  18 SE6       30.35F
SANTA FE         N/A    N/A N/A N/A MISG      30.30
TAOS           FAIR      66  11  11 VRB3      30.35F
ANGEL FIRE     FAIR      62  17  17 W9        30.38F

$$
NMZ402-403-502-505>509-172100-
WESTCENTRAL MOUNTAINS/SOUTHWEST MOUNTAINS

CITY           SKY/WX    TMP DP  RH WIND       PRES   REMARKS
GALLUP         FAIR      75  18  11 MISG      30.32F
GRANTS         FAIR      74  14  10 N12G18    30.32F
SILVER CITY    CLOUDY    76  40  27 S5        30.27F

$$
NMZ407-409-411-412-172100-
SOUTHERN DESERTS

CITY           SKY/WX    TMP DP  RH WIND       PRES   REMARKS
DEMING         FAIR      80  43  26 SW6       30.21F
LAS CRUCES     FAIR      79  40  24 CALM      30.24F
HOLLOMAN AFB   FAIR      82  40  21 CALM      30.23F
ALAMOGORDO     FAIR      77  39  25 NW5       30.23F
T OR C         FAIR      78  41  26 SE8       30.23F

$$
NMZ519>523-172100-
CENTRAL VALLEYS/CENTRAL HIGHLANDS

CITY           SKY/WX    TMP DP  RH WIND       PRES   REMARKS
ALBUQUERQUE    PTSUNNY   70  28  21 VRB3      30.27F
DOUBLE EAGLE   MOSUNNY   70  32  24 VRB5      30.30F
MORIARTY ARPT  FAIR      76  25  15 NW10G16   30.30F
CLINES CORNERS FAIR      69  20  15 W20G30    30.32F
BELEN          FAIR      71  29  21 CALM      30.27F
SOCORRO        FAIR      74  35  23 S3        30.24F

$$
NMZ524>526-539-540-172100-
SOUTHCENTRAL MOUNTAINS

CITY           SKY/WX    TMP DP  RH WIND       PRES   REMARKS
RUIDOSO        FAIR      72  32  23 N17       30.35F

$$
NMZ527>531-172100-
NORTHEAST HIGHLANDS/NORTHEAST PLAINS

CITY           SKY/WX    TMP DP  RH WIND       PRES   REMARKS
LAS VEGAS      FAIR      71  11  10 S9        30.27F
RATON          FAIR      76  14   9 E5        30.21F
CLAYTON        FAIR      77  24  14 VRB5      30.15F

$$
NMZ532>537-172100-
EASTCENTRAL PLAINS

CITY           SKY/WX    TMP DP  RH WIND       PRES   REMARKS
SANTA ROSA     FAIR      79  25  13 SW16G23   30.15F
TUCUMCARI      FAIR      83  28  13 W12       30.10F
CANNON AFB     FAIR      77  41  27 SW13      30.18F
CLOVIS AIRPORT FAIR      78  44  29 W14       30.17F

$$
NMZ028-029-538-172100-
SOUTHEAST PLAINS

CITY           SKY/WX    TMP DP  RH WIND       PRES   REMARKS
ROSWELL        FAIR      77  41  27 S7        30.17F
ARTESIA        FAIR      79  39  24 VRB6G12   30.16F
CARLSBAD       FAIR      79  43  27 SE8       30.15F
HOBBS          SUNNY     79  41  25 S9G15     30.19F


$$



USA.gov is the U.S. government's official web portal to all federal, state and local government web resources and services.